Fountain, MN

1:04 PM CST on February 10, 2016 (GMT -0600)
Preston

Weather History for KFKA - March, 2013

Change the Weather History Date:

Tuesday, March 12, 2013

  Actual Average (KRST) Record (KRST)
Temperature  
Mean Temperature 20 °F 30 °F  
Max Temperature 26 °F 38 °F 67 °F (1990)
Min Temperature 15 °F 23 °F -10 °F (1956)
Degree Days  
Heating Degree Days 44 35  
Month to date heating degree days 444  
Since 1 July heating degree days 6305  
Cooling Degree Days 0 0  
Month to date cooling degree days 0  
Year to date cooling degree days 0  
Moisture  
Dew Point 18 °F    
Average Humidity 82    
Maximum Humidity 92    
Minimum Humidity 70    
Precipitation  
Precipitation 0.00 in 0.05 in 0.88 in (2001)
Month to date precipitation 0.59  
Year to date precipitation 2.28  
Sea Level Pressure  
Sea Level Pressure 29.92 in    
Wind  
Wind Speed 14 mph (WNW)    
Max Wind Speed 24 mph    
Max Gust Speed 30 mph    
Visibility 8 miles    
Events Snow    
T = Trace of Precipitation, MM = Missing Value Source: NWS Daily Summary

Daily Weather History Graph

Daily Weather History Graph

Search for Another Location

Airport or City:

Trip Planner

Search our weather history database for the weather conditions in past years. The results will help you decide how hot, cold, wet, or windy it might be!

Date:

Astronomy

Mar. 12, 2013 Rise Set
Actual Time 7:25 AM CDT 7:11 PM CDT
Civil Twilight 6:57 AM CDT 7:40 PM CDT
Nautical Twilight 6:23 AM CDT 8:13 PM CDT
Astronomical Twilight 5:50 AM CDT 8:47 PM CDT
Moon 7:29 AM CDT (3/12) 8:31 PM CDT (3/12)
Length of Visible Light 12h 43m
Length of Day
11h 45m
New Moon, 1% of the Moon is Illuminated
Mar 12
New Moon
Mar 19
First Quarter
Mar 27
Full
Apr 2
Last Quarter
Apr 10
New

Hourly Weather History & Observations

Time (CDT) Temp. Windchill Dew Point Humidity Pressure Visibility Wind Dir Wind Speed Gust Speed Precip Events Conditions
12:14 AM 20.7 °F 7.1 °F 17.1 °F 86% 29.82 in 10.0 mi WNW 15.0 mph - N/A   Clear
12:34 AM 19.4 °F 6.6 °F 16.0 °F 87% 29.82 in 10.0 mi WNW 12.7 mph - N/A   Clear
12:54 AM 19.2 °F 5.8 °F 15.8 °F 87% 29.82 in 10.0 mi WNW 13.8 mph - N/A   Mostly Cloudy
1:14 AM 18.7 °F 6.3 °F 15.3 °F 87% 29.82 in 10.0 mi WNW 11.5 mph - N/A   Mostly Cloudy
1:34 AM 18.1 °F 5.0 °F 14.4 °F 85% 29.82 in 10.0 mi WNW 12.7 mph - N/A   Scattered Clouds
1:54 AM 17.4 °F 5.4 °F 13.6 °F 85% 29.83 in 10.0 mi WNW 10.4 mph - N/A   Clear
2:14 AM 16.7 °F 4.5 °F 13.3 °F 86% 29.84 in 10.0 mi West 10.4 mph - N/A   Clear
2:54 AM 16.3 °F 4.1 °F 12.2 °F 84% 29.84 in 10.0 mi West 10.4 mph - N/A   Clear
3:14 AM 15.6 °F 3.2 °F 11.5 °F 84% 29.83 in 10.0 mi West 10.4 mph - N/A   Scattered Clouds
3:34 AM 18.0 °F 4.8 °F 12.4 °F 79% 29.84 in 10.0 mi West 12.7 mph - N/A   Overcast
4:14 AM 19.6 °F 8.1 °F 14.0 °F 79% 29.83 in 10.0 mi West 10.4 mph - N/A   Overcast
4:34 AM 20.7 °F 9.5 °F 14.9 °F 78% 29.83 in 10.0 mi West 10.4 mph - N/A   Overcast
4:54 AM 21.2 °F 10.1 °F 15.8 °F 80% 29.83 in 10.0 mi West 10.4 mph - N/A   Overcast
5:14 AM 21.6 °F 12.1 °F 16.7 °F 82% 29.83 in 10.0 mi West 8.1 mph - N/A   Overcast
5:34 AM 21.9 °F 13.4 °F 18.0 °F 85% 29.84 in 10.0 mi West 6.9 mph - N/A   Overcast
5:54 AM 22.1 °F 13.7 °F 18.3 °F 85% 29.83 in 10.0 mi WSW 6.9 mph - N/A   Overcast
6:14 AM 22.6 °F 13.4 °F 19.0 °F 86% 29.84 in 10.0 mi West 8.1 mph - N/A   Overcast
6:33 AM 23.4 °F 15.2 °F 19.4 °F 85% 29.84 in 10.0 mi West 6.9 mph - N/A Snow Light Snow
6:54 AM 23.2 °F 14.1 °F 19.8 °F 87% 29.84 in 10.0 mi West 8.1 mph - N/A Snow Light Snow
7:14 AM 23.5 °F 16.4 °F 20.3 °F 87% 29.84 in 7.0 mi West 5.8 mph - N/A Snow Light Snow
7:34 AM 23.9 °F 15.8 °F 21.0 °F 89% 29.84 in 5.0 mi West 6.9 mph - N/A Snow Light Snow
7:54 AM 24.8 °F 15.3 °F 22.1 °F 89% 29.84 in 5.0 mi West 9.2 mph - N/A Snow Light Snow
8:15 AM 25.7 °F 17.1 °F 22.8 °F 89% 29.84 in 4.0 mi West 8.1 mph - N/A Snow Light Snow
8:34 AM 25.7 °F 16.4 °F 23.4 °F 91% 29.84 in 4.0 mi West 9.2 mph - N/A Snow Light Snow
8:54 AM 26.6 °F 16.8 °F 24.1 °F 90% 29.84 in 3.0 mi West 10.4 mph - N/A Snow Light Snow
9:14 AM 26.6 °F 16.8 °F 24.6 °F 92% 29.84 in 2.0 mi West 10.4 mph - N/A Snow Light Snow
9:34 AM 26.2 °F 17.1 °F 24.3 °F 92% 29.84 in 1.5 mi North 9.2 mph - N/A Snow Light Snow
9:54 AM 24.8 °F 13.4 °F 22.5 °F 91% 29.85 in 2.5 mi NW 12.7 mph 19.6 mph N/A Snow Light Snow
10:14 AM 24.8 °F 12.4 °F 21.2 °F 86% 29.86 in 3.0 mi NW 15.0 mph - N/A Snow Light Snow
10:34 AM 24.8 °F 12.9 °F 21.2 °F 86% 29.87 in 2.5 mi NW 13.8 mph - N/A Snow Light Snow
10:54 AM 25.0 °F 12.2 °F 18.9 °F 78% 29.88 in 7.0 mi NW 16.1 mph - N/A   Overcast
11:14 AM 25.2 °F 11.6 °F 17.2 °F 72% 29.88 in 10.0 mi NW 18.4 mph - N/A   Overcast
11:35 AM 25.2 °F 12.0 °F 18.3 °F 75% 29.89 in 7.0 mi NW 17.3 mph 21.9 mph N/A Snow Light Snow
11:54 AM 25.7 °F 13.5 °F 19.2 °F 76% 29.89 in 4.0 mi NW 15.0 mph - N/A Snow Light Snow
12:14 PM 25.7 °F 12.7 °F 19.0 °F 76% 29.90 in 7.0 mi NW 17.3 mph - N/A Snow Light Snow
12:34 PM 25.3 °F 11.8 °F 18.9 °F 76% 29.91 in 7.0 mi NW 18.4 mph 21.9 mph N/A   Overcast
12:54 PM 26.1 °F 12.7 °F 18.7 °F 74% 29.91 in 5.0 mi NW 18.4 mph 21.9 mph N/A Snow Light Snow
1:15 PM 26.2 °F 13.4 °F 18.5 °F 73% 29.92 in 7.0 mi NW 17.3 mph 23.0 mph N/A   Mostly Cloudy
1:34 PM 26.2 °F 13.4 °F 18.7 °F 73% 29.92 in 7.0 mi WNW 17.3 mph 23.0 mph N/A   Scattered Clouds
1:54 PM 26.1 °F 12.7 °F 17.8 °F 71% 29.92 in 7.0 mi WNW 18.4 mph - N/A   Scattered Clouds
2:15 PM 25.5 °F 11.6 °F 16.9 °F 70% 29.92 in 7.0 mi NW 19.6 mph 26.5 mph N/A   Mostly Cloudy
2:34 PM 25.3 °F 11.0 °F 17.1 °F 71% 29.92 in 10.0 mi WNW 20.7 mph - N/A   Mostly Cloudy
2:55 PM 24.6 °F 9.7 °F 17.6 °F 75% 29.93 in 7.0 mi NW 21.9 mph - N/A   Overcast
3:15 PM 25.2 °F 11.2 °F 17.2 °F 72% 29.93 in 10.0 mi NW 19.6 mph - N/A   Overcast
3:34 PM 24.6 °F 10.5 °F 17.4 °F 74% 29.93 in 10.0 mi NW 19.6 mph 25.3 mph N/A   Overcast
3:54 PM 24.6 °F 9.1 °F 17.6 °F 75% 29.94 in 7.0 mi WNW 24.2 mph 28.8 mph N/A   Overcast
4:14 PM 24.8 °F 10.0 °F 17.6 °F 74% 29.95 in 7.0 mi WNW 21.9 mph 25.3 mph N/A   Overcast
4:35 PM 25.0 °F 11.3 °F 17.2 °F 72% 29.95 in 7.0 mi WNW 18.4 mph 29.9 mph N/A   Mostly Cloudy
4:55 PM 24.3 °F 10.0 °F 17.6 °F 76% 29.96 in 7.0 mi WNW 19.6 mph 27.6 mph N/A   Mostly Cloudy
5:15 PM 23.9 °F 8.1 °F 18.3 °F 79% 29.96 in 7.0 mi NW 24.2 mph - N/A   Overcast
5:34 PM 23.7 °F 9.7 °F 18.9 °F 82% 29.97 in 3.0 mi WNW 18.4 mph - N/A Snow Light Snow
5:54 PM 23.5 °F 8.7 °F 19.2 °F 84% 29.98 in 1.5 mi WNW 20.7 mph 26.5 mph N/A Snow Light Snow
6:15 PM 23.0 °F 7.6 °F 18.9 °F 84% 29.98 in 2.5 mi NW 21.9 mph - N/A Snow Light Snow
6:34 PM 22.8 °F 9.4 °F 19.0 °F 85% 29.99 in 2.5 mi WNW 16.1 mph 27.6 mph N/A Snow Light Snow
6:54 PM 22.5 °F 8.9 °F 18.1 °F 83% 30.00 in 10.0 mi WNW 16.1 mph - N/A Snow Light Snow
7:14 PM 22.3 °F 9.2 °F 17.8 °F 83% 30.00 in 7.0 mi NW 15.0 mph - N/A   Overcast
7:34 PM 21.9 °F 8.2 °F 17.4 °F 83% 30.01 in 7.0 mi NW 16.1 mph 20.7 mph N/A Snow Light Snow
7:54 PM 21.4 °F 8.5 °F 18.0 °F 87% 30.02 in 4.0 mi WNW 13.8 mph 20.7 mph N/A Snow Light Snow
8:14 PM 21.2 °F 6.4 °F 17.6 °F 86% 30.03 in 10.0 mi NW 18.4 mph 23.0 mph N/A   Overcast
8:34 PM 20.7 °F 6.1 °F 16.5 °F 84% 30.03 in 10.0 mi NW 17.3 mph 25.3 mph N/A   Scattered Clouds
8:53 PM 20.3 °F 4.4 °F 16.7 °F 86% 30.04 in 10.0 mi NW 20.7 mph 25.3 mph N/A   Scattered Clouds
9:14 PM 20.3 °F 5.2 °F 16.5 °F 85% 30.04 in 7.0 mi NW 18.4 mph - N/A   Mostly Cloudy
9:34 PM 20.3 °F 5.2 °F 16.5 °F 85% 30.05 in 10.0 mi NW 18.4 mph 25.3 mph N/A   Overcast
9:54 PM 20.7 °F 5.7 °F 16.7 °F 85% 30.06 in 10.0 mi NW 18.4 mph 24.2 mph N/A   Overcast
10:14 PM 20.7 °F 6.1 °F 16.5 °F 84% 30.07 in 10.0 mi NW 17.3 mph 21.9 mph N/A   Overcast
10:34 PM 20.7 °F 6.6 °F 15.8 °F 81% 30.07 in 10.0 mi NW 16.1 mph - N/A   Overcast
10:54 PM 20.3 °F 7.2 °F 16.2 °F 84% 30.08 in 7.0 mi NW 13.8 mph 19.6 mph N/A Snow Light Snow
11:14 PM 20.8 °F 9.0 °F 16.7 °F 84% 30.09 in 5.0 mi NNW 11.5 mph - N/A Snow Light Snow
11:34 PM 20.8 °F 7.3 °F 15.8 °F 81% 30.09 in 10.0 mi NNW 15.0 mph 23.0 mph N/A   Mostly Cloudy
11:54 PM 20.8 °F 9.7 °F 15.3 °F 79% 30.10 in 10.0 mi NNW 10.4 mph - N/A   Scattered Clouds